Showing default

LEMUR 2 KADI, 43184

Orbit data source: Space-Track

LEMUR 2 KADI, 43184 is a payload satellite owned by Spire (US) in SSO that was launched on Thu, 01 Feb 2018 UTC via a SOYUZ-2-1A launch vehicle from the Vostochny Cosmodrome (VOSTO). Payload-class satellites include a variety of spacecraft equipped with specific instruments for various scientific and technological missions. These include communications satellites like Starlink; space stations such as the ISS; scientific satellites like the Hubble; Earth observation satellites from companies like Planet Labs, Umbra, and HawkEye 360; GPS; miniature CubeSats for education and research; and military/defense satellites.

Loading next visibility...
Identifier
43184, 2018-014E
Orbit
SSO
Last TLE update
16 hours ago
Origin
Manufacturer
Spire/Glasgow
Mission
Operational Commercial Com/MetRO
Bus & Motor
CUBESAT 3U, Unknown motor
Mass
4.6 kg wet, 4.6 kg dry
Launch date (UTC)
2018-02-01 (7 years ago)
Launch vehicle
SOYUZ-2-1A
Launch site
Vostochny Cosmodrome (VOSTO)
Object type
Payload
Rocket body
Debris
Shape & HBR
Box + 2 Pan, 0.7 m
Radar Cross Section
0.124 m², Small (<0.1 m²)

Expand to show TLE details & history

TLE from 16 hours ago
0 LEMUR 2 KADI
1 43184U 18014E   25183.20851071  .00018052  00000-0  51665-3 0  9999
2 43184  97.5117  94.1804 0009143  83.5248 276.7036 15.35965345406664
Epoch: 2025-07-02T05:00Z
TLE epoch observation values (Epoch: 2025-07-02T05:00:15.325Z)
Latitude
-0.00004°
Longitude
98.62364°
Altitude
460.439 km
Speed
7.637 km/s
True Right ascension
06h 16m 43s
True Declination
0° 00' 00"
Sunlit
Object was in daylight at epoch
Visualization orbit readout
Latitude
-26.23833°
Longitude
102.98915°
Altitude
469.785 km
Speed
7.629 km/s
Apparent Right ascension
03h 11m 33s
Apparent Declination
-69° 02' 56"
Sunlit
Object is in daylight
Visualization observer readout
Local Sidereal Time
08:15:33
Azimuth
204.206° SW
Elevation
-32.202°
Doppler factor
1
Orbital elements
Apogee altitude
461.251 km
Perigee altitude
448.756 km
Semi-major axis
6,833.141 km
Eccentricity
0.00091
Inclination
97.5117°
RAAN
94.1804°
Arg. of periapsis
83.5248°
True anomaly
Unknown
Mean anomaly
276.7036°
Eccentric anomaly
Unknown
Mean motion
3.84249 °/min
Orbital period
93.69 mins
BSTAR
0.00051665
Loading maneuver chart data...
Loading SW <> Apogee altitude chart data...
Loading historical data...
Loading historical data...
Loading historical data...
Loading historical data...
Loading historical data...
Loading historical data...
Loading historical data...

LEMUR 2 KADI Visibility forecast

Observer location: undefined°, undefined°

Span
Click to sort rows by Start time (UTC) header in descending order
Start Az.
Max El. time (UTC)
Max El. Az.
Max El.
End time (UTC)
End Az.
5 mins2025-07-03 06:35:30.521Z34.884° NE2025-07-03 06:37:30.521Z85.973° E32.35°2025-07-03 06:40:30.521Z167.346° S
4 mins2025-07-03 18:40:30.521Z220.224° SW2025-07-03 18:41:30.521Z247.994° W25.962°2025-07-03 18:44:30.521Z322.122° NNW
|